Temperature
19 19 19 18 18 18 18 18 18 18 18 17 17 17 17 17 17 17 16 16 16 16 16 16 16 16 16 16 16 16 16 16 16 16 16 16 15 15 15 15 15 15 15
19 19 18 18 18 18 18 18 18 18 17 17 17 17 16 16 16 16 16 16 16 16 16 16 15 16 16 16 16 16 16 16 16 16 16 16 15 15 15 15 15 15 15
19 19 18 18 18 18 18 17 17 17 17 17 17 16 16 16 16 16 16 16 16 15 15 15 15 15 15 15 15 15 15 16 15 16 16 15 15 15 15 15 15 14 14
19 18 18 18 18 17 17 17 17 17 17 17 16 16 16 16 16 16 16 15 15 15 15 15 15 15 15 15 15 15 15 15 15 15 15 15 15 15 14 14 14 14 14
19 19 18 18 18 17 17 17 17 17 16 16 16 16 16 16 16 16 16 15 15 15 15 15 15 15 15 15 15 15 15 15 15 15 15 15 15 14 14 14 14 14 14
18 18 18 18 18 17 17 17 17 17 17 16 16 16 16 16 16 16 15 15 15 15 15 15 15 15 15 15 15 15 14 14 14 14 15 14 14 14 14 14 14 14 14
18 18 18 18 17 17 17 17 16 16 16 16 16 15 15 15 15 15 15 15 15 15 14 14 14 14 14 14 14 14 14 14 14 14 14 14 14 14 13 13 13 13 13
18 18 17 17 17 17 16 16 16 16 16 16 16 15 15 15 15 15 15 15 14 14 14 14 14 14 14 14 14 13 13 14 14 14 13 13 13 13 13 13 13 13 13
18 17 17 17 17 17 16 16 16 16 16 15 15 15 15 15 15 15 14 14 14 14 14 14 14 14 14 13 13 13 13 13 13 13 13 13 13 13 13 13 12 13 13
17 17 17 17 17 16 16 16 16 15 15 15 15 15 15 15 14 14 14 14 14 14 14 14 14 13 13 13 13 13 13 13 13 13 13 12 12 12 12 12 12 12 12
17 17 17 17 16 16 16 16 15 15 15 15 14 15 15 14 14 14 14 13 13 13 13 13 13 13 13 13 13 13 12 12 12 12 12 12 12 12 11 11 11 11 12
16 16 16 16 16 16 15 15 15 15 14 14 14 14 14 14 14 14 14 13 13 13 13 13 13 13 13 13 13 12 12 12 12 12 12 12 12 11 11 11 11 11 11
16 16 16 16 15 15 15 15 14 14 14 14 14 14 14 14 14 14 13 13 13 13 12 12 12 13 12 12 12 12 12 12 12 12 12 11 11 11 11 11 11 11 10
16 15 15 15 15 15 14 14 14 14 14 14 14 14 14 13 13 13 13 13 12 12 12 12 12 12 12 12 12 11 11 11 11 11 11 11 11 11 10 10 10 10 10
15 15 15 15 15 15 14 14 14 14 14 13 13 13 13 13 13 13 13 12 12 12 12 12 12 12 12 11 11 11 11 11 11 11 11 11 10 10 10 10 10 10 10
15 15 15 15 14 14 14 14 14 14 14 14 13 13 13 13 13 13 13 12 12 12 12 12 11 11 11 11 11 11 10 10 10 10 10 10 10 10 10 10 10 10 10
15 15 15 15 14 14 14 13 13 13 13 13 13 13 13 13 13 12 12 12 12 12 11 11 11 11 11 11 10 10 10 10 10 10 10 9 9 9 10 10 9 9 9
14 14 14 14 14 14 14 13 13 13 13 13 13 13 13 12 12 12 12 12 12 11 11 11 11 10 10 10 10 10 10 10 9 9 9 9 9 9 9 9 9 9 9
14 14 14 13 14 14 13 13 13 13 13 13 13 13 12 12 12 12 12 11 11 11 11 11 11 10 10 10 10 10 9 9 9 9 9 9 9 9 9 9 9 9 9
13 13 13 13 13 13 13 13 13 13 13 13 13 12 12 12 12 12 11 11 11 11 11 11 11 10 10 10 9 9 9 9 9 9 9 8 8 8 8 8 8 8 8
13 13 13 13 13 13 13 13 13 13 13 13 12 12 12 12 12 11 11 11 11 11 10 10 10 10 10 9 9 9 9 9 9 8 8 8 8 8 8 8 8 8 8
13 13 13 13 13 13 12 12 12 12 12 12 12 12 12 11 11 11 11 11 10 10 10 10 10 10 9 9 9 9 9 9 8 8 8 8 8 8 8 8 8 8 8
13 13 13 13 12 12 12 12 12 12 12 12 12 12 12 11 11 11 11 10 10 10 10 10 10 9 9 9 9 9 8 8 8 8 8 8 7 7 7 7 7 7 7
12 13 13 12 12 12 12 12 12 12 12 12 12 11 11 11 11 10 10 10 10 10 10 9 9 9 9 9 8 8 8 8 8 7 7 7 7 7 7 7 7 7 7
12 12 12 12 12 12 12 12 12 12 12 11 11 11 11 11 10 10 10 10 9 9 9 9 9 9 8 8 8 8 8 8 8 7 7 7 7 7 7 7 6 6 6
12 12 12 12 12 12 12 11 12 11 11 11 11 11 10 10 10 10 10 9 9 9 9 9 9 8 8 8 8 8 7 7 7 7 7 6 6 6 6 6 6 6 6
Wind_Speed
5 4 4 3 3 3 3 2 2 2 2 2 2 2 2 2 2 3 3 2 3 3 3 3 4 5 4 4 4 5 5 5 5 4 3 2 3 4 3 3 3 3 3
6 5 4 3 3 3 3 3 3 3 3 3 3 3 3 3 2 3 3 3 3 4 4 4 4 4 4 5 4 5 4 4 5 5 4 3 4 3 3 4 3 3 2
6 6 5 4 4 3 3 3 3 3 3 3 3 3 3 3 3 3 3 4 4 4 4 4 5 4 5 4 5 5 5 4 4 5 4 3 3 2 3 3 3 2 3
6 6 6 5 5 4 4 4 3 3 3 3 3 3 3 3 3 3 3 4 4 4 4 4 4 4 5 5 5 5 5 5 5 5 4 3 2 2 3 2 2 2 3
5 5 5 5 4 4 4 4 4 4 4 3 3 3 3 3 2 2 3 3 4 4 4 4 4 4 5 5 5 5 5 5 5 4 4 3 2 2 3 3 2 3 3
5 4 4 4 4 4 5 4 4 4 4 4 4 4 4 3 2 2 4 4 4 4 5 5 4 3 3 4 4 5 6 5 5 5 4 4 3 3 3 3 3 3 3
4 4 4 4 5 5 5 4 4 4 4 4 4 4 4 2 1 2 4 5 5 4 5 5 5 3 3 4 4 5 5 5 6 6 5 5 4 3 4 5 4 4 4
4 4 4 5 5 5 5 5 5 5 4 4 5 5 4 3 2 2 3 5 4 4 5 5 5 5 4 4 5 4 4 4 4 5 4 4 3 3 3 5 4 4 4
4 4 4 5 5 4 5 5 5 5 4 4 4 4 4 3 2 2 3 4 4 4 4 4 5 5 2 4 4 4 4 3 1 1 2 1 1 1 2 2 2 3 3
4 4 4 4 5 5 5 5 4 4 4 5 4 4 4 4 2 2 3 4 3 4 4 4 2 2 1 2 3 3 3 3 3 2 1 1 2 3 4 3 3 3 3
4 4 4 4 5 5 4 4 4 4 4 4 4 4 4 3 3 3 2 3 4 4 4 3 1 2 1 2 4 3 3 3 3 3 2 2 2 2 2 2 2 3 3
3 4 4 5 5 4 4 4 4 4 4 4 4 4 4 3 3 3 4 4 6 4 4 3 1 2 2 3 2 1 2 3 3 2 2 2 2 2 1 1 2 2 3
4 4 5 5 5 5 5 5 5 5 5 5 4 4 4 3 3 5 6 6 5 4 3 2 0 2 3 3 3 3 3 2 2 2 2 2 2 2 2 1 1 1 2
4 5 5 5 5 4 4 5 5 5 5 5 5 4 4 3 2 2 3 3 5 4 2 1 4 4 2 1 1 2 2 2 2 2 2 2 2 2 2 2 2 2 2
4 4 5 5 4 4 4 3 4 4 4 4 4 4 4 3 1 1 2 2 2 2 2 2 1 1 1 1 1 1 1 1 1 2 2 2 2 3 2 2 3 3 3
4 4 4 4 4 4 4 3 1 2 3 3 3 4 3 1 2 1 2 3 3 3 3 2 2 2 2 2 2 2 1 2 2 2 2 2 3 3 3 3 3 4 4
4 4 4 4 4 5 5 4 3 2 4 4 5 4 4 3 3 4 4 4 4 4 3 2 2 2 3 2 2 3 2 2 2 2 2 3 3 4 4 4 4 4 4
4 4 4 5 5 5 5 5 5 5 4 3 4 7 7 6 6 5 5 4 3 4 3 3 2 3 3 3 3 3 3 2 2 3 3 3 3 4 4 4 4 4 5
4 4 4 5 5 4 5 5 5 5 4 3 2 4 7 7 7 7 6 4 4 4 4 3 3 3 3 3 3 3 3 3 2 3 3 3 4 4 4 4 4 4 5
4 4 5 6 5 4 4 5 5 4 4 4 4 3 3 4 4 4 4 4 4 4 4 3 3 3 3 4 3 3 3 3 3 3 3 4 4 4 4 5 5 5 5
4 4 6 7 6 5 5 5 5 4 4 4 4 3 3 4 4 4 4 4 4 4 4 4 3 4 4 3 3 4 4 3 3 3 3 3 4 4 4 5 5 5 5
5 5 5 5 5 5 5 5 4 4 4 4 4 3 6 5 4 3 4 4 4 4 4 4 4 4 3 3 3 3 3 3 3 3 4 4 4 4 4 5 5 5 5
6 5 5 5 5 4 5 5 4 4 4 4 4 3 3 4 4 4 4 4 3 3 4 4 4 3 3 3 3 3 3 3 4 4 4 4 5 5 5 5 6 6 6
6 6 5 5 5 5 5 5 5 5 5 4 4 4 4 4 4 4 4 3 3 4 4 4 4 4 4 3 3 3 3 3 5 5 6 6 5 5 5 5 5 6 6
6 5 5 5 5 5 5 5 5 4 4 4 4 4 4 4 4 4 4 4 4 4 4 4 3 4 4 4 3 2 0 1 4 6 6 6 6 6 6 6 6 6 6
5 5 5 5 4 5 5 5 4 4 4 4 4 4 4 4 4 3 3 3 3 3 3 3 3 3 4 3 2 1 1 1 3 6 7 6 6 6 6 5 6 6 6
Wind_Direction
172 174 174 176 187 198 198 209 215 223 220 227 240 252 260 267 265 263 269 267 275 287 286 277 276 285 284 277 270 269 265 260 261 272 280 286 279 277 277 265 251 240 198
168 171 172 170 181 200 201 210 215 222 227 227 234 242 252 261 259 257 271 284 281 287 288 288 286 279 278 277 277 271 270 261 257 262 272 275 264 264 264 261 256 247 238
166 171 172 178 187 201 206 208 215 223 232 234 232 242 257 267 265 263 273 280 279 285 288 287 290 290 285 287 282 279 275 264 261 258 262 262 265 266 260 259 259 255 248
172 177 182 193 200 203 207 209 216 221 227 235 240 245 253 262 268 274 272 274 281 288 292 291 291 289 286 287 281 278 277 273 262 259 262 258 255 259 260 259 265 262 263
182 190 197 202 201 206 211 215 218 223 228 230 240 244 253 255 265 284 280 284 287 283 284 288 290 297 312 298 294 292 281 273 268 263 264 270 274 273 273 266 267 269 251
192 199 201 205 206 212 219 218 217 224 232 233 239 246 253 267 45 347 296 287 281 281 285 285 278 270 277 266 283 296 293 279 278 274 265 268 271 272 281 273 275 273 264
197 205 209 211 213 219 224 219 222 227 231 236 241 245 251 260 180 264 284 281 277 278 280 282 284 289 278 285 266 245 255 261 269 272 276 280 275 273 269 262 262 271 277
205 213 217 218 222 224 224 228 229 233 235 238 242 245 252 253 182 241 277 267 274 274 273 272 276 285 291 297 288 285 287 285 269 256 270 284 298 295 264 257 256 253 243
209 217 220 221 223 222 225 230 232 233 236 243 244 243 246 247 181 215 264 265 266 273 275 274 276 280 334 322 287 285 287 281 260 245 273 286 321 293 279 268 262 258 258
224 227 224 224 224 225 229 233 235 234 235 241 242 243 246 252 179 183 250 262 269 275 270 267 272 292 38 328 287 282 283 294 306 318 314 231 233 220 220 255 269 267 265
230 230 226 226 228 227 228 228 224 229 234 240 243 247 246 245 173 163 234 261 276 276 279 277 292 110 59 305 293 287 295 298 284 276 274 266 243 239 235 241 285 280 272
232 232 231 229 231 225 222 221 221 226 228 231 236 244 239 228 208 188 200 254 295 277 283 289 1 142 236 264 272 297 282 269 266 276 281 290 295 296 289 289 301 294 293
232 230 232 229 226 221 220 220 219 223 234 233 232 238 239 229 196 181 201 228 261 269 294 10 54 206 231 235 212 210 230 256 269 277 290 305 310 313 308 290 257 231 241
233 233 232 230 228 222 226 222 223 225 231 238 240 241 237 231 230 209 214 217 215 234 264 196 187 208 241 302 241 227 250 298 307 300 303 309 306 294 281 283 273 259 256
239 238 238 233 228 227 226 233 230 227 228 237 245 245 242 237 252 351 270 256 258 241 237 234 248 242 248 272 286 295 299 299 290 302 303 302 291 286 278 269 270 262 262
239 241 244 239 229 229 223 217 75 223 177 201 237 251 255 248 155 184 242 261 263 232 228 226 243 258 270 280 281 277 275 291 302 302 292 290 283 277 276 272 271 272 273
254 250 257 255 237 232 228 223 223 205 179 192 201 206 219 218 213 212 224 236 222 201 214 236 249 259 267 273 275 275 276 262 266 274 282 286 287 283 277 271 264 267 273
261 256 247 251 244 236 231 228 230 232 225 224 200 189 195 209 220 219 216 222 215 205 229 240 244 255 262 266 270 270 268 263 250 252 261 269 276 281 284 283 279 279 278
266 266 261 259 250 238 234 230 232 234 235 230 216 189 188 202 207 208 206 232 242 235 235 238 241 245 256 263 265 265 262 257 264 269 265 267 271 274 280 283 284 281 277
263 258 257 253 247 241 236 237 235 231 231 230 225 223 197 204 218 211 213 235 251 252 250 250 252 256 257 259 256 258 258 254 252 256 262 262 266 272 277 280 282 280 279
268 261 245 248 244 238 237 240 240 238 241 240 235 213 210 236 240 236 233 237 250 259 261 263 258 254 251 246 245 246 252 255 255 262 265 264 269 273 275 276 278 281 284
265 263 258 254 251 246 244 242 237 234 239 242 242 210 188 228 251 250 244 243 252 261 264 263 260 253 251 247 241 243 249 254 258 261 263 262 261 264 269 274 277 282 286
259 257 255 252 248 234 236 244 242 241 242 240 243 241 224 240 247 252 252 251 252 261 264 259 257 252 245 241 238 236 246 259 265 267 264 263 266 268 269 270 276 286 287
261 255 252 248 242 239 236 239 245 246 244 241 241 242 240 243 248 247 249 249 249 251 253 252 253 251 247 247 248 241 243 266 272 265 264 265 265 269 269 268 272 276 277
255 250 246 244 242 241 239 239 242 246 248 245 243 244 241 239 241 239 235 236 241 246 250 251 248 245 243 244 253 260 338 292 269 275 263 259 260 261 266 269 270 277 279
254 252 248 244 243 241 242 243 248 252 253 251 245 242 243 245 244 242 239 239 242 244 253 252 247 247 250 246 245 251 176 209 258 275 267 259 260 260 264 264 269 272 279
Height
1520 1521 1522 1522 1523 1524 1524 1524 1525 1525 1525 1525 1524 1524 1524 1524 1523 1522 1522 1521 1521 1520 1520 1519 1518 1517 1517 1517 1516 1516 1515 1515 1513 1513 1513 1512 1511 1510 1509 1508 1508 1506 1505
1518 1519 1519 1520 1521 1522 1522 1523 1523 1523 1523 1523 1523 1522 1522 1522 1521 1521 1520 1520 1519 1518 1517 1517 1516 1515 1514 1514 1513 1512 1512 1511 1511 1509 1509 1509 1508 1507 1506 1505 1505 1504 1503
1516 1517 1517 1518 1519 1520 1520 1521 1521 1521 1521 1521 1521 1520 1520 1520 1519 1518 1518 1517 1517 1516 1515 1514 1513 1512 1512 1511 1510 1510 1509 1509 1508 1507 1506 1505 1505 1504 1503 1502 1502 1501 1500
1515 1515 1516 1516 1517 1518 1518 1518 1519 1519 1519 1519 1519 1518 1518 1517 1517 1516 1516 1515 1514 1513 1512 1511 1511 1510 1509 1508 1507 1506 1506 1505 1504 1504 1503 1502 1502 1501 1500 1500 1499 1498 1498
1512 1513 1514 1515 1515 1515 1516 1516 1516 1516 1517 1516 1516 1516 1515 1515 1515 1514 1513 1513 1511 1510 1509 1509 1508 1507 1506 1505 1505 1504 1503 1502 1501 1501 1500 1499 1499 1498 1497 1497 1496 1495 1495
1510 1511 1512 1512 1513 1513 1513 1514 1514 1514 1514 1514 1513 1513 1513 1513 1512 1511 1510 1510 1509 1508 1507 1506 1505 1503 1502 1501 1501 1500 1499 1498 1498 1497 1497 1496 1495 1495 1494 1494 1493 1493 1492
1508 1509 1509 1509 1510 1510 1511 1511 1511 1511 1511 1510 1510 1510 1510 1509 1509 1508 1507 1506 1506 1505 1504 1503 1502 1501 1499 1498 1497 1496 1496 1495 1494 1494 1493 1492 1492 1491 1491 1490 1490 1489 1488
1506 1506 1506 1507 1507 1507 1507 1507 1507 1508 1508 1507 1507 1507 1507 1506 1505 1505 1504 1503 1502 1501 1500 1499 1498 1497 1496 1495 1494 1493 1492 1491 1490 1490 1489 1489 1489 1487 1487 1487 1486 1486 1485
1503 1503 1503 1503 1503 1504 1504 1504 1504 1504 1504 1504 1504 1504 1503 1503 1502 1502 1501 1500 1499 1498 1497 1496 1495 1494 1492 1491 1491 1489 1488 1487 1486 1486 1486 1485 1484 1484 1484 1484 1483 1483 1483
1499 1499 1500 1500 1500 1500 1500 1501 1501 1501 1501 1501 1501 1500 1500 1500 1499 1498 1498 1497 1496 1495 1494 1493 1492 1491 1489 1488 1487 1486 1485 1484 1483 1483 1483 1482 1482 1481 1481 1480 1481 1481 1480
1496 1497 1496 1497 1497 1497 1497 1497 1497 1497 1498 1497 1497 1497 1497 1496 1496 1495 1495 1494 1494 1493 1492 1491 1489 1487 1486 1485 1484 1483 1482 1481 1481 1481 1481 1481 1480 1479 1479 1479 1478 1478 1478
1493 1493 1493 1493 1494 1494 1494 1494 1494 1494 1494 1494 1494 1494 1493 1493 1493 1492 1491 1491 1490 1490 1489 1488 1486 1485 1483 1482 1481 1480 1480 1479 1479 1479 1479 1478 1478 1478 1477 1477 1476 1475 1475
1490 1490 1490 1490 1490 1490 1490 1490 1491 1491 1492 1492 1492 1491 1491 1491 1490 1489 1488 1488 1487 1487 1486 1485 1483 1482 1481 1480 1479 1478 1477 1477 1477 1477 1476 1476 1476 1475 1475 1474 1473 1473 1473
1486 1486 1487 1487 1487 1487 1487 1487 1488 1488 1488 1489 1489 1489 1488 1488 1487 1486 1486 1485 1484 1484 1483 1482 1481 1480 1479 1478 1478 1477 1476 1475 1475 1474 1474 1474 1474 1473 1473 1472 1472 1471 1471
1483 1483 1484 1484 1484 1483 1484 1484 1484 1484 1485 1485 1486 1486 1486 1485 1484 1484 1483 1483 1482 1481 1480 1480 1479 1478 1477 1477 1476 1475 1474 1473 1473 1472 1472 1471 1471 1471 1471 1470 1470 1469 1469
1480 1480 1481 1481 1481 1481 1481 1481 1480 1481 1481 1481 1481 1482 1481 1481 1481 1480 1480 1479 1479 1478 1478 1477 1476 1476 1475 1474 1473 1473 1472 1472 1471 1470 1470 1470 1469 1469 1469 1468 1468 1467 1467
1477 1477 1477 1478 1478 1477 1477 1477 1477 1477 1477 1477 1477 1477 1477 1477 1477 1477 1476 1476 1476 1475 1475 1475 1474 1474 1474 1473 1472 1471 1471 1470 1469 1469 1468 1468 1468 1467 1466 1466 1465 1464 1464
1474 1473 1473 1473 1473 1474 1474 1474 1474 1474 1474 1473 1473 1473 1473 1473 1473 1473 1473 1473 1473 1472 1472 1472 1472 1472 1472 1471 1470 1470 1469 1468 1467 1467 1466 1466 1465 1465 1464 1463 1463 1462 1461
1471 1470 1470 1470 1469 1469 1470 1470 1470 1470 1470 1470 1470 1470 1469 1469 1469 1470 1470 1470 1470 1470 1469 1469 1469 1469 1470 1469 1468 1468 1467 1466 1465 1464 1464 1463 1463 1462 1461 1461 1460 1459 1458
1467 1466 1466 1467 1466 1466 1466 1466 1466 1466 1467 1466 1466 1466 1466 1466 1466 1466 1466 1466 1467 1467 1467 1466 1466 1466 1466 1466 1466 1465 1464 1463 1462 1462 1461 1461 1460 1459 1459 1458 1457 1456 1455
1464 1463 1462 1462 1463 1462 1462 1462 1463 1463 1463 1463 1463 1462 1462 1463 1463 1463 1463 1463 1463 1463 1463 1463 1463 1463 1463 1463 1462 1462 1462 1461 1460 1459 1458 1458 1457 1456 1456 1455 1454 1453 1452
1460 1459 1459 1459 1458 1458 1458 1458 1459 1459 1459 1459 1459 1459 1459 1459 1460 1459 1459 1460 1460 1460 1459 1459 1460 1460 1460 1459 1459 1459 1458 1457 1457 1456 1456 1455 1455 1454 1453 1452 1451 1450 1449
1456 1455 1455 1455 1455 1455 1455 1455 1456 1455 1456 1456 1456 1456 1456 1456 1456 1456 1456 1457 1456 1456 1456 1456 1456 1456 1456 1456 1456 1455 1455 1454 1454 1453 1452 1452 1451 1451 1450 1449 1447 1446 1445
1452 1451 1451 1451 1452 1452 1452 1452 1452 1452 1452 1452 1452 1452 1452 1452 1453 1452 1452 1453 1453 1453 1452 1452 1452 1452 1452 1452 1452 1452 1451 1450 1450 1449 1449 1448 1448 1447 1446 1445 1444 1443 1442
1448 1448 1448 1448 1448 1448 1449 1449 1449 1449 1449 1449 1449 1449 1449 1449 1449 1449 1449 1449 1450 1449 1449 1449 1449 1449 1449 1448 1448 1447 1447 1446 1446 1445 1445 1445 1444 1443 1443 1442 1441 1440 1439
1444 1444 1445 1445 1445 1445 1445 1446 1446 1446 1446 1446 1446 1446 1446 1446 1445 1445 1445 1446 1446 1446 1445 1445 1445 1445 1445 1444 1444 1443 1442 1442 1441 1441 1441 1441 1440 1439 1439 1438 1437 1436 1435